TimeEST,TemperatureF,Dew PointF,Humidity,Sea Level PressureIn,VisibilityMPH,Wind Direction,Wind SpeedMPH,Gust SpeedMPH,PrecipitationIn,Events,Conditions,WindDirDegrees,DateUTC
12:56 AM,46.0,43.0,89,29.75,10.0,South,11.5,-,N/A,,Overcast,190,2014-01-11 05:56:00
1:56 AM,46.9,43.0,86,29.72,10.0,South,11.5,-,N/A,,Overcast,190,2014-01-11 06:56:00
2:56 AM,46.9,44.1,90,29.70,10.0,SSW,11.5,-,N/A,,Overcast,210,2014-01-11 07:56:00
3:56 AM,46.9,45.0,93,29.66,7.0,South,12.7,-,0.02,Rain,Rain,180,2014-01-11 08:56:00
4:56 AM,48.0,46.0,93,29.63,6.0,SSW,12.7,-,0.06,Rain,Light Rain,200,2014-01-11 09:56:00
5:56 AM,48.9,46.9,93,29.59,8.0,SSW,11.5,-,0.12,Rain,Light Rain,200,2014-01-11 10:56:00
6:56 AM,48.0,46.0,93,29.57,7.0,South,11.5,-,0.11,Rain,Light Rain,190,2014-01-11 11:56:00
7:20 AM,48.2,46.4,93,29.54,7.0,SSW,9.2,-,0.03,Rain,Light Rain,200,2014-01-11 12:20:00
7:56 AM,46.9,46.0,97,29.52,10.0,South,9.2,-,0.04,Rain,Light Rain,190,2014-01-11 12:56:00
8:56 AM,46.9,46.0,97,29.49,10.0,SSW,9.2,-,0.00,,Scattered Clouds,200,2014-01-11 13:56:00
9:05 AM,48.2,46.4,93,29.47,10.0,South,11.5,-,N/A,,Mostly Cloudy,190,2014-01-11 14:05:00
9:25 AM,48.2,46.4,93,29.48,10.0,SSW,16.1,20.7,N/A,,Overcast,200,2014-01-11 14:25:00
9:56 AM,48.9,46.9,93,29.44,10.0,South,15.0,-,N/A,,Overcast,190,2014-01-11 14:56:00
10:56 AM,48.9,46.9,93,29.46,10.0,SSW,13.8,-,N/A,,Overcast,210,2014-01-11 15:56:00
11:10 AM,48.2,46.4,93,29.44,10.0,SSW,11.5,-,N/A,,Overcast,210,2014-01-11 16:10:00
11:26 AM,48.2,46.4,93,29.42,5.0,SSW,9.2,-,N/A,,Overcast,200,2014-01-11 16:26:00
11:56 AM,48.9,46.9,93,29.41,6.0,SSW,12.7,-,0.00,Rain,Light Rain,210,2014-01-11 16:56:00
12:18 PM,48.2,46.4,93,29.39,2.5,SSW,12.7,20.7,0.02,Rain,Light Rain,210,2014-01-11 17:18:00
12:28 PM,50.0,46.4,87,29.38,1.8,SW,18.4,32.2,0.07,Rain,Rain,230,2014-01-11 17:28:00
12:44 PM,48.2,46.4,93,29.37,2.5,WSW,13.8,28.8,0.11,Rain,Light Rain,240,2014-01-11 17:44:00
12:47 PM,48.2,46.4,93,29.37,3.0,WSW,12.7,28.8,0.11,Rain,Light Rain,240,2014-01-11 17:47:00
12:56 PM,48.9,46.9,93,29.37,10.0,WSW,13.8,17.3,0.11,Rain,Light Rain,240,2014-01-11 17:56:00
1:03 PM,48.2,46.4,93,29.37,10.0,SW,11.5,20.7,0.00,Rain,Light Rain,230,2014-01-11 18:03:00
1:17 PM,50.0,46.4,87,29.37,10.0,WSW,13.8,23.0,0.00,,Overcast,240,2014-01-11 18:17:00
1:28 PM,50.0,46.4,87,29.36,10.0,WSW,16.1,24.2,0.00,,Overcast,240,2014-01-11 18:28:00
1:41 PM,46.4,42.8,87,29.37,10.0,West,23.0,39.1,0.00,Rain,Light Rain,270,2014-01-11 18:41:00
1:56 PM,46.9,42.1,83,29.39,10.0,West,20.7,31.1,0.00,,Overcast,270,2014-01-11 18:56:00
2:38 PM,46.4,39.2,76,29.39,10.0,West,16.1,27.6,0.00,,Overcast,280,2014-01-11 19:38:00
2:45 PM,46.4,37.4,71,29.40,10.0,West,19.6,29.9,0.00,,Overcast,270,2014-01-11 19:45:00
2:56 PM,45.0,37.9,76,29.41,10.0,West,19.6,-,0.00,,Overcast,280,2014-01-11 19:56:00
3:34 PM,42.8,35.6,76,29.43,10.0,West,20.7,31.1,0.00,,Overcast,270,2014-01-11 20:34:00
3:45 PM,42.8,35.6,76,29.44,10.0,West,21.9,28.8,0.00,,Overcast,280,2014-01-11 20:45:00
3:56 PM,42.1,35.1,76,29.47,10.0,West,26.5,34.5,0.00,,Overcast,280,2014-01-11 20:56:00
4:35 PM,39.2,32.0,75,29.48,10.0,West,24.2,32.2,N/A,,Overcast,280,2014-01-11 21:35:00
4:56 PM,39.0,32.0,76,29.50,10.0,West,20.7,28.8,N/A,,Overcast,270,2014-01-11 21:56:00
5:42 PM,37.4,30.2,75,29.50,10.0,West,19.6,26.5,N/A,,Overcast,270,2014-01-11 22:42:00
5:56 PM,37.0,30.9,79,29.52,10.0,West,12.7,-,N/A,,Overcast,260,2014-01-11 22:56:00
6:56 PM,36.0,30.0,79,29.56,10.0,West,24.2,38.0,N/A,,Overcast,280,2014-01-11 23:56:00
7:20 PM,33.8,30.2,87,29.56,10.0,West,24.2,35.7,N/A,,Overcast,270,2014-01-12 00:20:00
7:56 PM,34.0,30.0,85,29.60,9.0,West,17.3,27.6,N/A,,Overcast,270,2014-01-12 00:56:00
8:56 PM,34.0,30.0,85,29.64,6.0,West,18.4,26.5,0.00,Rain,Light Rain,280,2014-01-12 01:56:00
9:56 PM,33.1,30.0,89,29.67,9.0,West,19.6,25.3,0.00,,Overcast,260,2014-01-12 02:56:00
10:34 PM,33.8,28.4,81,29.68,9.0,West,17.3,25.3,N/A,,Overcast,280,2014-01-12 03:34:00
10:42 PM,33.8,28.4,81,29.68,9.0,West,17.3,26.5,N/A,,Overcast,280,2014-01-12 03:42:00
10:56 PM,33.1,28.0,82,29.71,9.0,West,13.8,23.0,N/A,,Overcast,280,2014-01-12 03:56:00
11:42 PM,33.8,28.4,81,29.69,10.0,West,21.9,31.1,N/A,,Overcast,270,2014-01-12 04:42:00
11:56 PM,33.1,27.0,78,29.72,10.0,West,16.1,27.6,N/A,,Overcast,270,2014-01-12 04:56:00